Location: Alto Vineyards
(37.5789°N, 89.3217°W)
Time: 05:45:57
(UTC+00:00)

Daily predictions for brighter satellites

Satellite Brightness Start Highest point End
(mag) Time Altitude Azimuth Time Altitude Azimuth Time Altitude Azimuth
CZ-4B R/B 3.2 00:00:12 10° N 00:03:04 31° WNW 00:05:53 10° SW
Cosmos 1892 3.5 00:05:30 10° NNE 00:08:58 30° ENE 00:12:24 10° SE
Meteor 2-10 Rocket 3.9 00:04:01 10° SSE 00:08:59 39° E 00:13:49 10° NNE
Meteor 2-16 Rocket 4.4 00:05:41 10° N 00:11:48 89° E 00:17:54 10° S
Cosmos 1244 Rocket 4.4 00:07:26 10° N 00:13:40 77° E 00:19:56 10° S
BREEZE-M DEB (TANK) 2.8 00:12:04 10° SSW 00:14:39 28° SE 00:14:50 27° SE
Cosmos 1300 4.2 00:12:15 10° SSW 00:15:51 40° W 00:19:27 10° N
Cosmos 2369 4.2 00:11:27 10° S 00:16:37 36° ESE 00:20:55 14° NE
CZ-2D R/B 3.1 00:13:29 10° SSE 00:17:15 64° ENE 00:21:02 10° N
ARGOS 4.2 00:17:55 22° E 00:18:53 24° ENE 00:23:07 10° NNE
Cosmos 1315 Rocket 3.3 00:16:45 10° SSE 00:20:20 34° E 00:22:02 23° NE
Cosmos 1408 4.2 00:17:26 10° NNE 00:18:50 18° NE 00:18:50 18° NE
COSMO-SKYMED 1 3.1 00:17:05 10° N 00:21:22 62° WNW 00:25:38 10° SSW
Cosmos 1346 Rocket 3.5 00:18:31 10° NNE 00:22:05 31° ENE 00:22:09 31° ENE
Aureole 3 Rocket 3.2 00:18:41 10° SSW 00:22:13 70° W 00:27:01 10° N
Cosmos 1656 3.7 00:19:45 10° SSW 00:25:16 82° WNW 00:30:56 10° NNE
Atlas Centaur 2 3.7 00:18:41 10° WSW 00:26:36 45° SSE 00:31:38 23° ESE
Okean O Rocket 4.4 00:24:11 10° SW 00:27:28 21° W 00:30:45 10° NW
Cosmos 44 Rocket 3.9 00:24:13 10° S 00:28:21 31° ESE 00:28:45 31° ESE
Cosmos 1689 Rocket 4.0 00:28:26 10° N 00:31:01 30° WNW 00:33:36 10° SW
Cosmos 1992 Rocket 3.9 00:26:43 10° S 00:31:50 62° ESE 00:36:58 10° NNE
YAOGAN 1 2.5 00:27:47 10° SSE 00:32:01 59° ENE 00:36:17 10° N
Milstar 3 3.5 00:26:34 10° WSW 00:32:59 40° S 00:36:53 22° ESE
Cosmos 2227 Rocket 2.2 00:28:33 10° NNW 00:34:08 56° ENE 00:38:11 18° SE
GEOS 3 Rocket 4.4 00:33:12 30° ENE 00:34:25 33° NE 00:39:12 10° NNW
Meteor 2-1 Rocket 4.1 00:29:20 10° S 00:34:45 61° E 00:40:11 10° NNE
CSL-04 Rocket 4.0 00:30:11 10° SE 00:35:25 45° ENE 00:40:40 10° N
H-2A R/B 2.4 00:31:58 10° SE 00:37:04 46° ENE 00:42:16 10° N
Cosmos 1812 Rocket 3.7 00:34:50 10° SSE 00:39:03 46° E 00:39:47 42° ENE
Cosmos 2315 Rocket 4.3 00:38:07 10° SSE 00:43:46 38° E 00:49:24 10° NNE
Cosmos 1340 3.3 00:41:35 10° NNW 00:45:17 55° W 00:48:59 10° S
S3M 3.8 00:39:41 10° S 00:45:47 84° E 00:51:57 10° N
Cosmos 1697 Rocket 2.5 00:41:11 10° SSW 00:46:46 79° ESE 00:51:31 15° NNE
Geosat 4.1 00:44:40 10° NNE 00:49:42 75° WNW 00:54:41 10° SSW
OAO 2 Rocket 3.4 00:46:20 10° WSW 00:51:13 60° S 00:52:06 51° SE
ASTRO E2 3.9 00:50:10 10° WSW 00:53:31 31° S 00:53:31 31° S
Okean-O 3.5 00:55:12 10° S 00:59:29 50° W 01:03:49 10° NNW
GPS 2-04 Rocket1 3.9 00:59:03 10° SW 01:01:59 33° S 01:01:59 33° S
Cosmos 1455 2.7 01:01:03 10° SSW 01:04:43 57° W 01:05:35 44° NNW
SeaSat 1 3.4 01:08:27 33° NNE 01:08:27 33° NNE 01:11:30 10° NNW
Cosmos 1980 Rocket 2.2 01:03:33 10° S 01:08:35 60° SE 01:08:35 60° SE
Cosmos 2297 Rocket 2.9 01:08:33 10° NNW 01:14:03 53° WSW 01:19:32 10° S
CSL-04 Debris 4.3 01:09:32 10° S 01:14:56 75° WSW 01:20:25 10° NNW
Cosmos 2360 4.4 01:17:09 10° SSW 01:22:50 68° WNW 01:25:11 36° N
CZ-4 R/B 3.6 01:22:13 10° SSW 01:25:22 23° W 01:28:30 10° NW
Cosmos 968 Rocket 4.3 01:22:46 10° NNW 01:27:47 49° WSW 01:29:53 31° SSW
Cosmos 2058 4.5 01:27:17 10° NNW 01:30:59 33° W 01:31:21 32° WSW
Cosmos 2278 3.9 01:31:28 10° SSW 01:36:37 67° WSW 01:36:37 67° WSW
USA 215 4.4 01:45:28 30° N 01:45:28 30° N 01:49:51 10° NNW
Cosmos 2082 4.5 01:46:54 10° NNW 01:51:26 50° WNW 01:51:26 50° WNW
ARGOS 4.3 01:59:27 40° W 01:59:27 40° W 02:03:58 10° NNW
ATLAS 2AS CENTAUR R/B 4.1 01:54:20 10° NNW 01:58:19 28° N 01:58:19 28° N
Atlas Centaur 2 3.7 02:07:50 10° WSW 02:14:14 45° SW 02:14:14 45° SW
H-2A R/B 4.4 02:12:43 10° SW 02:16:40 21° W 02:20:41 10° NW
Cosmos 2344 4.1 09:17:24 45° N 09:17:24 45° N 09:22:50 10° NNE
COSMOS 2406 3.7 09:38:12 56° ENE 09:38:12 56° ENE 09:42:51 10° NNE
NOSS 3-2 (C) 4.4 09:48:44 35° N 09:48:44 35° N 09:52:47 10° NNE
DELTA 2 R/B (1) 3.7 09:55:47 66° SE 09:55:47 66° SE 10:00:42 10° ESE
CENTAUR R/B 3.2 09:58:10 39° NNW 09:58:10 39° NNW 10:03:23 10° NNE
CZ-2C R/B 3.2 09:52:26 10° NNE 09:55:51 44° NNE 09:55:51 44° NNE
Cosmos 1980 Rocket 4.4 10:00:04 10° N 10:04:19 22° NE 10:08:33 10° ESE
Cosmos 2279 Rocket 3.9 10:09:24 10° NNW 10:15:30 60° W 10:21:33 10° S
Cosmos 1461 3.0 10:17:00 87° SSE 10:17:03 88° ESE 10:21:44 10° NNE
Cosmos 1626 2.6 10:18:23 59° E 10:18:23 59° E 10:22:01 10° NNE
Cosmos 1302 Rocket 3.9 10:18:58 30° NNW 10:21:38 84° WSW 10:26:53 10° SSE
ADEOS 3.8 10:19:58 10° NNE 10:25:11 70° ESE 10:30:23 10° S
CZ-4B R/B 2.5 10:25:26 10° SSE 10:28:45 45° ENE 10:32:03 10° N
deb Kosmos-1763 4.5 10:31:25 49° N 10:31:25 49° N 10:34:08 10° NNE
Cosmos 1484 Rocket 2.9 10:27:13 10° NNE 10:31:03 71° E 10:34:48 10° S
Lacrosse 4 Rocket 3.6 10:38:38 12° NNW 10:38:38 12° NNW 10:39:08 10° N
Cosmos 1833 Rocket 2.8 10:36:01 39° WSW 10:37:37 50° WNW 10:43:06 10° NNE
ATLAS 3B R/B 2.5 10:39:28 21° SW 10:44:04 67° NW 10:50:41 10° NNE
Cosmos 44 Rocket 3.5 10:46:18 30° NW 10:48:33 52° WSW 10:53:33 10° S
Cosmos 1689 Rocket 4.3 10:46:41 10° SE 10:49:11 26° ENE 10:51:43 10° NNE
Meteor 1-24 Rocket 3.6 10:46:12 10° S 10:51:45 85° W 10:57:34 10° N
Elektron 1 4.1 10:51:38 47° WNW 10:51:58 50° NW 10:54:45 10° NNE
CZ-4B R/B 3.9 10:48:18 10° NNE 10:52:17 50° E 10:56:27 10° S
Lacrosse 5 rocket 2.7 10:53:32 20° NNW 10:53:32 20° NNW 10:55:57 10° NNE
Cosmos 1726 Rocket 3.8 10:49:44 10° N 10:54:11 72° E 10:58:38 10° SSE
METEOR-M 4.0 10:49:01 10° N 10:54:22 83° WNW 10:59:42 10° SSW
Meteor 1-31 Rocket 2.6 10:51:36 10° N 10:55:32 78° WNW 10:59:26 10° SSW
ADEOS Rocket 3.3 10:50:41 10° SSW 10:55:38 34° W 11:00:37 10° NNW
Cosmos 2369 3.6 10:51:30 10° NNW 10:57:11 86° WSW 11:02:49 10° SSE
ARGOS Delta rocket 4.2 10:51:49 10° NNE 10:57:17 84° E 11:02:46 10° S
Cosmos 2082 Rocket 2.2 10:53:24 10° SW 10:58:55 60° WNW 11:04:28 10° NNE
Cosmos 1992 Rocket 4.0 10:55:44 10° NNW 11:00:58 86° ENE 11:06:11 10° SSE
Cosmos 2228 3.0 10:57:52 10° NNW 11:02:12 65° W 11:06:33 10° S
Cosmos 1656 4.3 10:59:36 20° NW 11:02:44 33° WSW 11:07:44 10° SSW
ATLAS CENTAUR R/B 3.9 11:02:04 10° SSE 11:05:13 22° ESE 11:08:17 10° ENE
USA 290 2.7 11:05:06 33° W 11:05:49 38° WNW 11:08:51 10° N
ISS -1.9 11:06:32 17° NNW 11:06:48 17° NNW 11:09:07 10° NNE
NOSS 8 (A) 4.2 11:05:59 11° SW 11:09:26 67° WNW 11:12:27 10° NNE
Cosmos 1606 Rocket 3.6 11:05:19 10° NNW 11:09:42 57° W 11:14:05 10° S
SL-16 R/B 4.5 11:07:01 10° N 11:11:25 22° NE 11:15:46 10° ESE
ALOS 2.6 11:07:17 10° N 11:11:38 40° WNW 11:16:00 10° SW
COSMO-SKYMED 1 2.7 11:09:40 10° SSE 11:13:59 80° ENE 11:18:21 10° N
ERS-2 3.1 11:13:19 10° SSW 11:16:25 26° W 11:18:58 13° NW
H-2A R/B 4.3 11:14:01 10° SW 11:14:09 10° SW 11:14:09 10° SW
SAR-Lupe-4 3.6 11:13:50 10° S 11:17:20 55° W 11:20:51 10° NNW
Cosmos 1092 Rocket 4.1 11:11:42 10° SSW 11:17:41 53° W 11:23:45 10° N
Cosmos 967 Rocket 4.4 11:13:52 10° NNW 11:20:09 74° WSW 11:26:21 10° SSE
Meteor 2-5 Rocket 4.3 11:15:20 10° SW 11:20:30 36° WNW 11:25:49 10° N
CZ-4B R/B 4.4 11:17:15 10° N 11:21:06 37° WNW 11:24:46 10° SW
Cosmos 614 Rocket 3.9 11:18:14 10° SSW 11:23:24 80° WNW 11:28:34 10° NNE
Cosmos 2251 Rocket 4.0 11:19:02 10° SW 11:24:01 39° WNW 11:29:01 10° N
Cosmos 1697 Rocket 3.1 11:20:50 10° NW 11:26:04 40° WSW 11:31:18 10° S
Cosmos 1400 Rocket 2.8 11:23:14 10° NNW 11:27:05 55° W 11:30:52 10° S
CZ-3 R/B 3.2 11:08:39 12° W 11:29:08 52° SSW 11:35:24 10° ESE
CZ-2C R/B 4.3 11:33:54 10° NW 11:34:49 10° WNW 11:35:12 10° WNW
Okean 1-7 Rocket 3.8 11:31:54 10° SSW 11:36:18 48° W 11:40:42 10° N
Cosmos 2084 4.3 11:36:51 10° WSW 11:40:43 32° NW 11:44:41 10° NNE
Cosmos 2058 Rocket 3.3 11:38:10 10° NNW 11:42:32 51° W 11:46:50 10° SSW
Cosmos 1190 Rocket 4.1 11:40:55 10° SSW 11:46:10 84° ESE 11:51:25 10° NNE
Cosmos 1300 4.0 11:44:54 10° NW 11:47:48 21° W 11:50:41 10° SW
H-2A R/B 2.8 11:43:37 10° NNE 11:47:59 77° ESE 11:52:09 10° S
Cosmos 1980 Rocket 2.4 11:43:12 10° NNW 11:48:35 51° WSW 11:53:58 10° S
CENTAUR R/B 4.4 11:47:14 10° NW 11:49:45 12° NNW 11:52:24 10° N
Cosmos 2292 Rocket 2.8 11:50:35 10° S 11:53:33 87° E 11:57:01 10° N
